This is the latest recevied weather packets stored in our database for station/object OK2JCZ-6. If no packets are shown the sender has not sent any weather packets the latest 10 day(s).
| Time | Temp. | Humidity | Pressure | Rain* | Wind** | Luminosity | Snow |
|---|---|---|---|---|---|---|---|
| 1777580077 | 3.33° C | 42% | 1028.3 hPa | 0 mm | - | - | - |
| 1777579477 | 3.33° C | 42% | 1028.1 hPa | 0 mm | - | - | - |
| 1777578578 | 3.89° C | 42% | 1028 hPa | 0 mm | - | - | - |
| 1777577677 | 4.44° C | 41% | 1027.8 hPa | 0 mm | - | - | - |
| 1777577377 | 4.44° C | 41% | 1027.8 hPa | 0 mm | - | - | - |
| 1777577077 | 4.44° C | 41% | 1027.8 hPa | 0 mm | - | - | - |
| 1777576777 | 4.44° C | 42% | 1027.7 hPa | 0 mm | - | - | - |
| 1777576477 | 4.44° C | 40% | 1027.7 hPa | 0 mm | - | - | - |
| 1777576177 | 5° C | 41% | 1027.6 hPa | 0 mm | - | - | - |
| 1777575877 | 5° C | 41% | 1027.5 hPa | 0 mm | - | - | - |
| 1777575279 | 5.56° C | 35% | 1027.4 hPa | 0 mm | - | - | - |
| 1777574677 | 6.67° C | 34% | 1027.3 hPa | 0 mm | - | - | - |
| 1777574077 | 7.22° C | 34% | 1027.3 hPa | 0 mm | - | - | - |
| 1777573777 | 7.22° C | 34% | 1027.2 hPa | 0 mm | - | - | - |
| 1777572577 | 8.33° C | 34% | 1027.1 hPa | 0 mm | - | - | - |
| 1777572277 | 8.33° C | 34% | 1027.1 hPa | 0 mm | - | - | - |
| 1777571377 | 9.44° C | 32% | 1026.9 hPa | 0 mm | - | - | - |
| 1777571077 | 9.44° C | 31% | 1026.8 hPa | 0 mm | - | - | - |
| 1777570777 | 10° C | 31% | 1026.8 hPa | 0 mm | - | - | - |
| 1777570477 | 10° C | 30% | 1026.8 hPa | 0 mm | - | - | - |
| 1777570177 | 10.56° C | 30% | 1026.8 hPa | 0 mm | - | - | - |
| 1777569877 | 10.56° C | 30% | 1026.9 hPa | 0 mm | - | - | - |
| 1777569277 | 10.56° C | 29% | 1026.8 hPa | 0 mm | - | - | - |
| 1777568977 | 11.11° C | 29% | 1026.8 hPa | 0 mm | - | - | - |
| 1777568377 | 11.11° C | 28% | 1026.7 hPa | 0 mm | - | - | - |
* Rain latest hour (hover to see other rain measurements)
** Current wind speed in m/s (hover to see current wind gust speed)